Time,TemperatureF,DewpointF,PressureIn,WindDirection,WindDirectionDegrees,WindSpeedMPH,WindSpeedGustMPH,Humidity,HourlyPrecipIn,Conditions,Clouds,dailyrainin,SoftwareType,DateUTC
2013-05-17 00:03:00,57.7,35.8,29.82,NE,45,9.8,10.2,44,0.00,,,0.00,WUHU216HW,2013-05-17 05:03:00,
2013-05-17 00:08:00,57.5,35.7,29.82,East,90,6.9,9.8,44,0.00,,,0.00,WUHU216HW,2013-05-17 05:08:00,
2013-05-17 00:13:00,57.3,35.5,29.82,East,86,4.0,8.2,44,0.00,,,0.00,WUHU216HW,2013-05-17 05:13:00,
2013-05-17 00:18:00,57.3,36.1,29.82,NE,45,7.6,7.6,45,0.00,,,0.00,WUHU216HW,2013-05-17 05:18:00,
2013-05-17 00:23:00,57.2,35.9,29.82,NE,52,6.7,9.1,45,0.00,,,0.00,WUHU216HW,2013-05-17 05:23:00,
2013-05-17 00:28:00,57.0,35.7,29.82,NE,45,9.1,9.1,45,0.00,,,0.00,WUHU216HW,2013-05-17 05:28:00,
2013-05-17 00:34:00,56.8,36.1,29.81,NNE,23,6.0,9.1,46,0.00,,,0.00,WUHU216HW,2013-05-17 05:34:00,
2013-05-17 00:39:00,56.8,36.1,29.81,East,79,7.9,8.0,46,0.00,,,0.00,WUHU216HW,2013-05-17 05:39:00,
2013-05-17 00:44:00,56.4,35.8,29.80,ENE,68,3.3,8.0,46,0.00,,,0.00,WUHU216HW,2013-05-17 05:44:00,
2013-05-17 00:49:00,56.4,36.4,29.80,ENE,58,3.8,8.0,47,0.00,,,0.00,WUHU216HW,2013-05-17 05:49:00,
2013-05-17 00:53:00,56.3,36.2,29.80,ENE,68,7.6,8.0,47,0.00,,,0.00,WUHU216HW,2013-05-17 05:53:00,
2013-05-17 00:59:00,56.1,36.0,29.81,East,90,6.9,7.8,47,0.00,,,0.00,WUHU216HW,2013-05-17 05:59:00,
2013-05-17 01:04:00,55.9,36.4,29.81,NNE,23,8.2,8.2,48,0.00,,,0.00,WUHU216HW,2013-05-17 06:04:00,
2013-05-17 01:09:00,55.9,36.4,29.81,NE,45,6.7,8.2,48,0.00,,,0.00,WUHU216HW,2013-05-17 06:09:00,
2013-05-17 01:14:00,55.7,36.2,29.81,ENE,68,7.6,7.6,48,0.00,,,0.00,WUHU216HW,2013-05-17 06:14:00,
2013-05-17 01:19:00,55.5,36.0,29.81,NE,45,4.7,7.8,48,0.00,,,0.00,WUHU216HW,2013-05-17 06:19:00,
2013-05-17 01:24:00,55.4,35.9,29.81,NNE,23,5.8,7.8,48,0.00,,,0.00,WUHU216HW,2013-05-17 06:24:00,
2013-05-17 01:29:00,55.4,35.9,29.81,NE,45,7.3,7.8,48,0.00,,,0.00,WUHU216HW,2013-05-17 06:29:00,
2013-05-17 01:34:00,55.4,36.4,29.81,ENE,68,0.6,9.8,49,0.00,,,0.00,WUHU216HW,2013-05-17 06:34:00,
2013-05-17 01:39:00,55.2,36.3,29.81,NE,45,6.4,9.8,49,0.00,,,0.00,WUHU216HW,2013-05-17 06:39:00,
2013-05-17 01:44:00,55.2,36.8,29.82,NE,45,5.9,8.2,50,0.00,,,0.00,WUHU216HW,2013-05-17 06:44:00,
2013-05-17 01:49:00,55.2,36.8,29.81,ENE,58,3.5,7.3,50,0.00,,,0.00,WUHU216HW,2013-05-17 06:49:00,
2013-05-17 01:54:00,55.2,37.3,29.81,NE,45,6.9,7.3,51,0.00,,,0.00,WUHU216HW,2013-05-17 06:54:00,
2013-05-17 01:59:00,55.0,36.7,29.81,East,90,7.4,9.3,50,0.00,,,0.00,WUHU216HW,2013-05-17 06:59:00,
2013-05-17 02:04:00,55.0,36.7,29.81,NE,45,5.5,9.3,50,0.00,,,0.00,WUHU216HW,2013-05-17 07:04:00,
2013-05-17 02:09:00,55.0,36.1,29.81,ENE,57,7.0,7.6,49,0.00,,,0.00,WUHU216HW,2013-05-17 07:09:00,
2013-05-17 02:14:00,55.0,36.1,29.82,ENE,68,8.7,8.7,49,0.00,,,0.00,WUHU216HW,2013-05-17 07:14:00,
2013-05-17 02:19:00,55.0,35.9,29.81,NE,45,7.1,8.7,49,0.00,,,0.00,WUHU216HW,2013-05-17 07:19:00,
2013-05-17 02:24:00,54.8,35.9,29.82,NE,45,6.4,8.5,49,0.00,,,0.00,WUHU216HW,2013-05-17 07:24:00,
2013-05-17 02:29:00,54.6,35.8,29.82,ENE,68,7.6,7.8,49,0.00,,,0.00,WUHU216HW,2013-05-17 07:29:00,
2013-05-17 02:34:00,54.6,35.8,29.82,NE,56,6.9,7.8,49,0.00,,,0.00,WUHU216HW,2013-05-17 07:34:00,
2013-05-17 02:39:00,54.6,35.8,29.81,ENE,68,3.1,8.2,49,0.00,,,0.00,WUHU216HW,2013-05-17 07:39:00,
2013-05-17 02:44:00,54.5,35.6,29.81,East,90,6.0,8.2,49,0.00,,,0.00,WUHU216HW,2013-05-17 07:44:00,
2013-05-17 02:50:00,54.5,35.6,29.81,East,90,4.9,8.7,49,0.00,,,0.00,WUHU216HW,2013-05-17 07:50:00,
2013-05-17 02:55:00,54.3,35.5,29.81,East,87,3.6,8.7,49,0.00,,,0.00,WUHU216HW,2013-05-17 07:55:00,
2013-05-17 03:00:00,54.3,35.5,29.82,NE,45,4.6,8.7,49,0.00,,,0.00,WUHU216HW,2013-05-17 08:00:00,
2013-05-17 03:05:00,54.1,35.9,29.81,NE,45,1.1,6.7,50,0.00,,,0.00,WUHU216HW,2013-05-17 08:05:00,
2013-05-17 03:10:00,54.1,35.9,29.82,ENE,68,6.2,6.7,50,0.00,,,0.00,WUHU216HW,2013-05-17 08:10:00,
2013-05-17 03:15:00,53.9,35.7,29.82,East,80,8.8,9.6,50,0.00,,,0.00,WUHU216HW,2013-05-17 08:15:00,
2013-05-17 03:20:00,53.9,36.2,29.82,NE,45,5.5,9.6,51,0.00,,,0.00,WUHU216HW,2013-05-17 08:20:00,
2013-05-17 03:25:00,53.7,36.5,29.82,ENE,68,0.0,7.6,52,0.00,,,0.00,WUHU216HW,2013-05-17 08:25:00,
2013-05-17 03:30:00,53.7,36.5,29.82,NE,45,4.9,8.0,52,0.00,,,0.00,WUHU216HW,2013-05-17 08:30:00,
2013-05-17 03:35:00,53.4,36.6,29.82,East,90,7.3,8.0,53,0.00,,,0.00,WUHU216HW,2013-05-17 08:35:00,
2013-05-17 03:40:00,53.4,37.1,29.83,NE,45,0.0,7.3,54,0.00,,,0.00,WUHU216HW,2013-05-17 08:40:00,
2013-05-17 03:45:00,53.4,37.1,29.83,ENE,68,8.5,8.5,54,0.00,,,0.00,WUHU216HW,2013-05-17 08:45:00,
2013-05-17 03:50:00,53.2,37.1,29.83,NNE,23,5.5,8.5,54,0.00,,,0.00,WUHU216HW,2013-05-17 08:50:00,
2013-05-17 03:55:00,53.2,37.4,29.83,NE,45,3.3,7.3,55,0.00,,,0.00,WUHU216HW,2013-05-17 08:55:00,
2013-05-17 04:01:00,53.2,37.4,29.83,NE,45,7.3,7.3,55,0.00,,,0.00,WUHU216HW,2013-05-17 09:01:00,
2013-05-17 04:06:00,52.8,37.5,29.83,NE,45,3.3,8.2,56,0.00,,,0.00,WUHU216HW,2013-05-17 09:06:00,
2013-05-17 04:11:00,52.8,37.9,29.83,ENE,68,3.1,8.2,57,0.00,,,0.00,WUHU216HW,2013-05-17 09:11:00,
2013-05-17 04:16:00,52.7,38.2,29.83,NE,45,3.3,10.7,58,0.00,,,0.00,WUHU216HW,2013-05-17 09:16:00,
2013-05-17 04:21:00,52.7,38.2,29.83,East,90,7.3,10.7,58,0.00,,,0.00,WUHU216HW,2013-05-17 09:21:00,
2013-05-17 04:26:00,52.5,38.1,29.83,NE,45,3.3,8.2,58,0.00,,,0.00,WUHU216HW,2013-05-17 09:26:00,
2013-05-17 04:31:00,52.5,38.5,29.83,ENE,68,7.3,8.2,59,0.00,,,0.00,WUHU216HW,2013-05-17 09:31:00,
2013-05-17 04:36:00,52.5,39.0,29.83,NE,45,2.0,7.3,60,0.00,,,0.00,WUHU216HW,2013-05-17 09:36:00,
2013-05-17 04:41:00,52.3,38.8,29.83,NE,34,7.8,8.0,60,0.00,,,0.00,WUHU216HW,2013-05-17 09:41:00,
2013-05-17 04:46:00,52.3,38.8,29.83,NE,45,0.0,8.5,60,0.00,,,0.00,WUHU216HW,2013-05-17 09:46:00,
2013-05-17 04:51:00,52.3,39.2,29.83,ENE,68,6.4,9.1,61,0.00,,,0.00,WUHU216HW,2013-05-17 09:51:00,
2013-05-17 04:56:00,52.3,39.2,29.84,ENE,68,5.6,9.1,61,0.00,,,0.00,WUHU216HW,2013-05-17 09:56:00,
2013-05-17 05:01:00,52.3,39.2,29.84,ENE,68,10.5,10.5,61,0.00,,,0.00,WUHU216HW,2013-05-17 10:01:00,
2013-05-17 05:06:00,52.3,39.2,29.84,ENE,68,2.6,10.5,61,0.00,,,0.00,WUHU216HW,2013-05-17 10:06:00,
2013-05-17 05:11:00,52.3,39.2,29.84,NE,45,1.7,8.9,61,0.00,,,0.00,WUHU216HW,2013-05-17 10:11:00,
2013-05-17 05:16:00,52.3,39.2,29.84,NE,45,4.9,6.0,61,0.00,,,0.00,WUHU216HW,2013-05-17 10:16:00,
2013-05-17 05:21:00,52.3,39.2,29.85,NNE,23,4.0,6.7,61,0.00,,,0.00,WUHU216HW,2013-05-17 10:21:00,
2013-05-17 05:26:00,52.3,39.6,29.85,NE,45,0.0,6.7,62,0.00,,,0.00,WUHU216HW,2013-05-17 10:26:00,
2013-05-17 05:31:00,52.3,40.0,29.85,ENE,68,1.5,4.2,63,0.00,,,0.00,WUHU216HW,2013-05-17 10:31:00,
2013-05-17 15:30:00,53.6,49.1,29.88,East,90,9.6,9.6,85,0.00,,,0.00,WUHU216HW,2013-05-17 20:30:00,
2013-05-17 15:35:00,53.7,49.3,29.88,ENE,68,0.0,9.6,85,0.00,,,0.34,WUHU216HW,2013-05-17 20:35:00,
2013-05-17 15:40:00,53.7,49.3,29.88,East,90,5.4,10.7,85,0.00,,,0.34,WUHU216HW,2013-05-17 20:40:00,
2013-05-17 15:46:00,54.1,50.0,29.88,East,90,9.6,11.1,86,0.00,,,0.34,WUHU216HW,2013-05-17 20:46:00,
2013-05-17 15:51:00,54.6,50.5,29.88,East,90,11.1,11.1,86,0.00,,,0.34,WUHU216HW,2013-05-17 20:51:00,
2013-05-17 15:56:00,55.2,50.7,29.88,East,90,10.1,11.1,85,0.00,,,0.34,WUHU216HW,2013-05-17 20:56:00,
2013-05-17 16:01:00,56.1,51.4,29.88,ESE,113,7.1,10.7,84,0.00,,,0.34,WUHU216HW,2013-05-17 21:01:00,
2013-05-17 16:06:00,57.0,52.1,29.88,ESE,113,7.0,10.5,84,0.00,,,0.34,WUHU216HW,2013-05-17 21:06:00,
2013-05-17 16:11:00,57.3,51.9,29.88,ESE,102,6.3,9.6,82,0.00,,,0.34,WUHU216HW,2013-05-17 21:11:00,
2013-05-17 16:16:00,57.3,51.5,29.88,East,90,7.6,9.6,81,0.00,,,0.34,WUHU216HW,2013-05-17 21:16:00,
2013-05-17 16:21:00,57.7,51.9,29.88,SE,135,10.2,13.6,81,0.00,,,0.34,WUHU216HW,2013-05-17 21:21:00,
2013-05-17 16:26:00,57.7,51.6,29.88,ESE,113,6.7,13.6,80,0.00,,,0.34,WUHU216HW,2013-05-17 21:26:00,
2013-05-17 16:31:00,57.3,50.9,29.88,ESE,111,6.6,12.5,79,0.00,,,0.34,WUHU216HW,2013-05-17 21:31:00,
2013-05-17 16:36:00,57.0,50.5,29.88,East,90,10.7,12.5,79,0.00,,,0.34,WUHU216HW,2013-05-17 21:36:00,
2013-05-17 16:41:00,56.4,50.0,29.88,East,99,9.1,11.1,79,0.00,,,0.34,WUHU216HW,2013-05-17 21:41:00,
2013-05-17 16:47:00,56.8,50.7,29.88,SE,135,7.4,11.1,80,0.00,,,0.34,WUHU216HW,2013-05-17 21:47:00,
2013-05-17 16:52:00,57.3,51.2,29.88,SE,127,4.2,8.5,80,0.00,,,0.34,WUHU216HW,2013-05-17 21:52:00,
2013-05-17 16:57:00,57.5,51.0,29.87,East,90,8.0,8.2,79,0.00,,,0.34,WUHU216HW,2013-05-17 21:57:00,
2013-05-17 17:02:00,57.3,50.9,29.88,East,90,2.4,8.2,79,0.00,,,0.34,WUHU216HW,2013-05-17 22:02:00,
2013-05-17 17:07:00,57.0,50.1,29.87,East,90,6.7,8.5,78,0.00,,,0.34,WUHU216HW,2013-05-17 22:07:00,
2013-05-17 17:12:00,56.8,50.0,29.88,East,90,6.2,8.5,78,0.00,,,0.34,WUHU216HW,2013-05-17 22:12:00,
2013-05-17 17:17:00,56.4,50.0,29.88,East,90,7.8,8.0,79,0.00,,,0.34,WUHU216HW,2013-05-17 22:17:00,
2013-05-17 17:22:00,55.9,49.6,29.87,East,81,6.3,8.2,79,0.00,,,0.34,WUHU216HW,2013-05-17 22:22:00,
2013-05-17 17:27:00,55.5,49.1,29.87,East,85,6.7,10.5,79,0.00,,,0.34,WUHU216HW,2013-05-17 22:27:00,
2013-05-17 17:32:00,55.2,48.7,29.87,East,90,7.3,10.5,79,0.00,,,0.34,WUHU216HW,2013-05-17 22:32:00,
2013-05-17 17:37:00,55.0,48.9,29.87,East,80,5.1,8.0,80,0.00,,,0.34,WUHU216HW,2013-05-17 22:37:00,
2013-05-17 17:42:00,55.0,49.2,29.87,East,90,4.7,7.3,81,0.00,,,0.34,WUHU216HW,2013-05-17 22:42:00,
2013-05-17 17:47:00,54.8,49.1,29.87,ENE,68,4.9,7.3,81,0.00,,,0.34,WUHU216HW,2013-05-17 22:47:00,
2013-05-17 17:52:00,54.6,48.9,29.88,East,90,3.1,7.6,81,0.00,,,0.34,WUHU216HW,2013-05-17 22:52:00,
2013-05-17 17:58:00,54.6,48.9,29.88,NE,45,0.0,7.6,81,0.00,,,0.34,WUHU216HW,2013-05-17 22:58:00,
2013-05-17 18:03:00,54.5,48.7,29.88,ENE,68,0.0,8.7,81,0.00,,,0.34,WUHU216HW,2013-05-17 23:03:00,
2013-05-17 18:08:00,54.3,48.6,29.88,East,90,0.0,8.7,81,0.00,,,0.34,WUHU216HW,2013-05-17 23:08:00,
2013-05-17 18:13:00,54.5,48.7,29.88,ENE,68,2.6,2.6,81,0.00,,,0.34,WUHU216HW,2013-05-17 23:13:00,
2013-05-17 18:18:00,54.5,48.7,29.88,NE,45,0.0,8.2,81,0.00,,,0.34,WUHU216HW,2013-05-17 23:18:00,
2013-05-17 18:23:00,54.6,48.9,29.88,ENE,68,2.6,8.2,81,0.00,,,0.34,WUHU216HW,2013-05-17 23:23:00,
2013-05-17 18:28:00,54.8,49.1,29.88,NE,45,4.6,7.1,81,0.00,,,0.34,WUHU216HW,2013-05-17 23:28:00,
2013-05-17 18:33:00,55.0,49.2,29.88,East,90,5.1,7.1,81,0.00,,,0.34,WUHU216HW,2013-05-17 23:33:00,
2013-05-17 18:38:00,55.2,49.4,29.88,NE,45,0.0,5.1,81,0.00,,,0.34,WUHU216HW,2013-05-17 23:38:00,
2013-05-17 18:43:00,55.2,49.4,29.88,NE,45,7.1,7.1,81,0.00,,,0.34,WUHU216HW,2013-05-17 23:43:00,
2013-05-17 18:48:00,55.2,49.4,29.88,ENE,68,0.0,7.1,81,0.00,,,0.34,WUHU216HW,2013-05-17 23:48:00,
2013-05-17 18:53:00,55.2,49.4,29.88,NE,45,2.0,5.5,81,0.00,,,0.34,WUHU216HW,2013-05-17 23:53:00,
2013-05-17 18:58:00,55.2,49.6,29.87,East,90,7.3,7.3,81,0.00,,,0.34,WUHU216HW,2013-05-17 23:58:00,
2013-05-17 19:03:00,55.9,50.1,29.88,East,90,8.2,8.2,81,0.00,,,0.34,WUHU216HW,2013-05-18 00:03:00,
2013-05-17 19:08:00,55.7,49.6,29.88,ENE,66,5.8,8.2,80,0.00,,,0.34,WUHU216HW,2013-05-18 00:08:00,
2013-05-17 19:13:00,55.4,49.1,29.88,NNE,23,6.2,7.8,80,0.00,,,0.34,WUHU216HW,2013-05-18 00:13:00,
2013-05-17 19:19:00,54.8,49.1,29.88,East,90,6.2,6.4,81,0.00,,,0.34,WUHU216HW,2013-05-18 00:19:00,
2013-05-17 19:24:00,54.3,48.6,29.88,ENE,68,0.0,6.2,81,0.00,,,0.34,WUHU216HW,2013-05-18 00:24:00,
2013-05-17 19:29:00,54.1,48.7,29.88,ENE,68,7.0,7.3,82,0.00,,,0.34,WUHU216HW,2013-05-18 00:29:00,
2013-05-17 19:34:00,53.4,48.3,29.88,ENE,62,5.0,7.3,83,0.00,,,0.34,WUHU216HW,2013-05-18 00:34:00,
2013-05-17 19:39:00,53.2,48.2,29.88,East,90,5.3,6.7,83,0.00,,,0.34,WUHU216HW,2013-05-18 00:39:00,
2013-05-17 19:44:00,52.8,47.8,29.88,ENE,68,2.9,5.3,83,0.00,,,0.34,WUHU216HW,2013-05-18 00:44:00,
2013-05-17 19:49:00,52.8,48.1,29.88,ENE,68,6.2,6.2,84,0.00,,,0.34,WUHU216HW,2013-05-18 00:49:00,
2013-05-17 19:54:00,52.7,48.4,29.88,ENE,68,4.9,6.2,85,0.00,,,0.34,WUHU216HW,2013-05-18 00:54:00,
2013-05-17 19:59:00,52.7,48.2,29.88,NE,45,2.6,6.2,85,0.00,,,0.34,WUHU216HW,2013-05-18 00:59:00,
2013-05-17 20:04:00,52.7,48.2,29.88,NE,45,6.4,6.4,85,0.00,,,0.34,WUHU216HW,2013-05-18 01:04:00,
2013-05-17 20:09:00,52.7,48.2,29.88,ENE,68,2.4,6.4,85,0.00,,,0.34,WUHU216HW,2013-05-18 01:09:00,
2013-05-17 20:14:00,52.5,48.2,29.88,ENE,68,2.4,4.6,85,0.00,,,0.34,WUHU216HW,2013-05-18 01:14:00,
2013-05-17 20:19:00,52.7,48.5,29.88,ENE,68,0.0,2.4,86,0.00,,,0.34,WUHU216HW,2013-05-18 01:19:00,
2013-05-17 20:24:00,52.5,48.4,29.88,ENE,68,0.0,2.2,86,0.00,,,0.34,WUHU216HW,2013-05-18 01:24:00,
2013-05-17 20:29:00,52.5,48.4,29.88,ENE,68,6.4,6.4,86,0.00,,,0.34,WUHU216HW,2013-05-18 01:29:00,
2013-05-17 20:34:00,52.3,48.2,29.89,NE,45,1.7,7.8,86,0.00,,,0.34,WUHU216HW,2013-05-18 01:34:00,
2013-05-17 20:39:00,52.3,48.2,29.89,NE,45,8.7,8.7,86,0.00,,,0.34,WUHU216HW,2013-05-18 01:39:00,
2013-05-17 20:44:00,52.3,48.2,29.89,ENE,68,0.0,8.7,86,0.00,,,0.34,WUHU216HW,2013-05-18 01:44:00,
2013-05-17 20:49:00,52.1,48.0,29.89,NE,45,3.5,3.5,86,0.00,,,0.34,WUHU216HW,2013-05-18 01:49:00,
2013-05-17 20:54:00,51.9,48.1,29.89,East,90,2.0,3.5,87,0.00,,,0.34,WUHU216HW,2013-05-18 01:54:00,
2013-05-17 20:59:00,51.9,48.1,29.89,East,90,1.3,6.0,87,0.00,,,0.34,WUHU216HW,2013-05-18 01:59:00,
2013-05-17 21:04:00,51.9,48.1,29.89,NE,45,0.6,6.0,87,0.00,,,0.34,WUHU216HW,2013-05-18 02:04:00,
2013-05-17 21:09:00,51.9,48.1,29.89,NE,45,4.9,8.0,87,0.00,,,0.34,WUHU216HW,2013-05-18 02:09:00,
2013-05-17 21:14:00,51.9,48.1,29.89,ENE,68,6.9,8.0,87,0.00,,,0.34,WUHU216HW,2013-05-18 02:14:00,
2013-05-17 21:19:00,51.9,48.1,29.89,East,90,4.2,6.9,87,0.00,,,0.34,WUHU216HW,2013-05-18 02:19:00,
2013-05-17 21:24:00,51.9,48.1,29.89,East,90,4.2,6.7,87,0.00,,,0.34,WUHU216HW,2013-05-18 02:24:00,
2013-05-17 21:29:00,51.9,48.1,29.89,East,90,0.8,6.7,87,0.00,,,0.34,WUHU216HW,2013-05-18 02:29:00,